Columbus, NE

6:06 AM CST on January 18, 2018 (GMT -0600)
Columbus Municipal

Weather History for KOLU - October, 2013

Change the Weather History Date:

Thursday, October 3, 2013

  Actual Average Record
Temperature  
Mean Temperature 65 °F -  
Max Temperature 73 °F 70 °F 93 °F (2005)
Min Temperature 57 °F 45 °F 29 °F (1950)
Growing Degree Days 15 (Base 50)    
Moisture  
Dew Point 57 °F    
Average Humidity 78    
Maximum Humidity 88    
Minimum Humidity 64    
Precipitation  
Precipitation 0.00 in - - ()
Sea Level Pressure  
Sea Level Pressure 29.79 in    
Wind  
Wind Speed 7 mph (ENE)    
Max Wind Speed 18 mph    
Max Gust Speed 26 mph    
Visibility 10 miles    
Events Thunderstorm    
Averages and records for this station are not official NWS values.
T = Trace of Precipitation, MM = Missing Value Source: NWS Daily Summary

Daily Weather History Graph

Daily Weather History Graph

Search for Another Location

Airport or City:

Trip Planner

Search our weather history database for the weather conditions in past years. The results will help you decide how hot, cold, wet, or windy it might be!

Date:

Astronomy

Oct. 03, 2013 Rise Set
Actual Time 7:28 AM CDT 7:07 PM CDT
Civil Twilight 7:00 AM CDT 7:34 PM CDT
Nautical Twilight 6:28 AM CDT 8:06 PM CDT
Astronomical Twilight 5:56 AM CDT 8:39 PM CDT
Moon 6:02 AM CDT (10/3) 6:16 PM CDT (10/3)
Length of Visible Light 12h 34m
Length of Day
11h 38m
Waning Crescent, 2% of the Moon is Illuminated
Oct 3
Waning Crescent
Oct 4
New
Oct 11
First Quarter
Oct 18
Full
Oct 26
Last Quarter

Hourly Weather History & Observations

Time (CDT) Temp. Dew Point Humidity Pressure Visibility Wind Dir Wind Speed Gust Speed Precip Events Conditions
12:15 AM 62.6 °F 55.4 °F 77% 29.90 in 7.0 mi SE 4.6 mph - N/A Thunderstorm Thunderstorm
12:35 AM 62.6 °F 57.2 °F 82% 29.89 in 9.0 mi SE 3.5 mph - N/A Thunderstorm Overcast
12:55 AM 62.6 °F 57.2 °F 82% 29.89 in 7.0 mi ESE 9.2 mph - N/A   Overcast
1:15 AM 62.6 °F 57.2 °F 82% 29.89 in 9.0 mi ESE 6.9 mph - N/A   Overcast
1:35 AM 60.8 °F 55.4 °F 82% 29.86 in 7.0 mi ESE 10.4 mph - N/A Thunderstorm Overcast
1:55 AM 60.8 °F 57.2 °F 88% 29.86 in 8.0 mi ESE 12.7 mph - N/A Thunderstorm Thunderstorm
2:15 AM 60.8 °F 55.4 °F 82% 29.84 in 9.0 mi ESE 16.1 mph 21.9 mph N/A Thunderstorm Thunderstorm
2:35 AM 60.8 °F 55.4 °F 82% 29.79 in 10.0 mi East 17.3 mph 26.5 mph N/A Thunderstorm Mostly Cloudy
2:55 AM 60.8 °F 55.4 °F 82% 29.84 in 10.0 mi SE 6.9 mph - N/A Thunderstorm Mostly Cloudy
3:15 AM 60.8 °F 55.4 °F 82% 29.83 in 10.0 mi SE 8.1 mph - N/A Thunderstorm Mostly Cloudy
3:35 AM 60.8 °F 55.4 °F 82% 29.81 in 10.0 mi ESE 6.9 mph - N/A   Overcast
3:55 AM 60.8 °F 55.4 °F 82% 29.79 in 10.0 mi ESE 8.1 mph - N/A   Mostly Cloudy
4:15 AM 60.8 °F 55.4 °F 82% 29.82 in 10.0 mi ESE 3.5 mph - N/A   Scattered Clouds
4:35 AM 60.8 °F 55.4 °F 82% 29.80 in 10.0 mi ENE 6.9 mph - N/A   Partly Cloudy
4:55 AM 60.8 °F 55.4 °F 82% 29.81 in 10.0 mi ESE 3.5 mph - N/A   Clear
5:15 AM 60.8 °F 55.4 °F 82% 29.80 in 10.0 mi ENE 4.6 mph - N/A   Clear
5:35 AM 60.8 °F 55.4 °F 82% 29.79 in 10.0 mi ENE 4.6 mph - N/A   Clear
5:55 AM 59.0 °F 55.4 °F 88% 29.79 in 10.0 mi ENE 4.6 mph - N/A   Partly Cloudy
6:15 AM 59.0 °F 55.4 °F 88% 29.80 in 10.0 mi ENE 3.5 mph - N/A   Scattered Clouds
6:35 AM 59.0 °F 53.6 °F 82% 29.79 in 10.0 mi East 3.5 mph - N/A   Partly Cloudy
6:55 AM 59.0 °F 53.6 °F 82% 29.79 in 7.0 mi NE 4.6 mph - N/A   Clear
7:15 AM 57.2 °F 53.6 °F 88% 29.80 in 10.0 mi ENE 3.5 mph - N/A   Clear
7:35 AM 57.2 °F 53.6 °F 88% 29.80 in 10.0 mi ENE 4.6 mph - N/A   Clear
7:55 AM 57.2 °F 53.6 °F 88% 29.79 in 10.0 mi ENE 3.5 mph - N/A   Clear
8:15 AM 59.0 °F 53.6 °F 82% 29.79 in 10.0 mi Calm Calm - N/A   Clear
8:35 AM 59.0 °F 53.6 °F 82% 29.79 in 10.0 mi Calm Calm - N/A   Clear
8:55 AM 59.0 °F 55.4 °F 88% 29.80 in 10.0 mi Calm Calm - N/A   Clear
9:15 AM 60.8 °F 55.4 °F 82% 29.80 in 10.0 mi Calm Calm - N/A   Mostly Cloudy
9:35 AM 62.6 °F 57.2 °F 82% 29.78 in 10.0 mi East 5.8 mph - N/A   Scattered Clouds
9:55 AM 62.6 °F 57.2 °F 82% 29.80 in 10.0 mi East 5.8 mph - N/A   Clear
10:15 AM 64.4 °F 59.0 °F 83% 29.80 in 10.0 mi East 4.6 mph - N/A   Partly Cloudy
10:35 AM 64.4 °F 59.0 °F 83% 29.79 in 10.0 mi ENE 4.6 mph - N/A   Mostly Cloudy
10:55 AM 66.2 °F 59.0 °F 78% 29.80 in 10.0 mi Calm Calm - N/A   Overcast
11:15 AM 69.8 °F 60.8 °F 73% 29.79 in 10.0 mi ENE 4.6 mph - N/A   Mostly Cloudy
11:35 AM 68.0 °F 59.0 °F 73% 29.79 in 10.0 mi East 5.8 mph - N/A   Mostly Cloudy
11:55 AM 71.6 °F 60.8 °F 69% 29.78 in 10.0 mi East 3.5 mph - N/A   Scattered Clouds
12:15 PM 71.6 °F 60.8 °F 69% 29.78 in 10.0 mi East 4.6 mph - N/A   Partly Cloudy
12:35 PM 73.4 °F 60.8 °F 65% 29.78 in 10.0 mi Calm Calm - N/A   Clear
12:55 PM 73.4 °F 60.8 °F 65% 29.77 in 10.0 mi Calm Calm - N/A   Mostly Cloudy
1:15 PM 73.4 °F 60.8 °F 65% 29.77 in 10.0 mi NNE 4.6 mph - N/A   Overcast
1:35 PM 73.4 °F 60.8 °F 65% 29.76 in 10.0 mi NNE 6.9 mph - N/A   Overcast
1:55 PM 71.6 °F 60.8 °F 69% 29.76 in 10.0 mi NNE 8.1 mph - N/A   Overcast
2:15 PM 71.6 °F 60.8 °F 69% 29.76 in 10.0 mi NNE 9.2 mph - N/A   Overcast
2:35 PM 71.6 °F 60.8 °F 69% 29.76 in 10.0 mi NNE 10.4 mph - N/A   Overcast
2:55 PM 69.8 °F 59.0 °F 68% 29.76 in 10.0 mi North 15.0 mph - N/A   Overcast
3:15 PM 69.8 °F 59.0 °F 68% 29.77 in 10.0 mi NNE 18.4 mph 23.0 mph N/A   Overcast
3:35 PM 69.8 °F 57.2 °F 64% 29.77 in 10.0 mi NNE 13.8 mph 21.9 mph N/A   Overcast
3:55 PM 69.8 °F 59.0 °F 68% 29.77 in 10.0 mi NNE 13.8 mph 19.6 mph N/A   Overcast
4:15 PM 66.2 °F 57.2 °F 73% 29.78 in 10.0 mi NNE 10.4 mph - N/A   Overcast
4:35 PM 66.2 °F 57.2 °F 73% 29.77 in 10.0 mi NNE 12.7 mph 19.6 mph N/A   Overcast
4:55 PM 66.2 °F 57.2 °F 73% 29.78 in 10.0 mi NNE 10.4 mph 19.6 mph N/A   Overcast
5:15 PM 66.2 °F 57.2 °F 73% 29.78 in 10.0 mi NNE 11.5 mph 18.4 mph N/A   Mostly Cloudy
5:35 PM 64.4 °F 57.2 °F 77% 29.78 in 10.0 mi NNE 12.7 mph - N/A   Mostly Cloudy
5:55 PM 64.4 °F 57.2 °F 77% 29.79 in 10.0 mi NE 13.8 mph 18.4 mph N/A   Mostly Cloudy
6:15 PM 64.4 °F 57.2 °F 77% 29.78 in 10.0 mi NE 16.1 mph - N/A   Mostly Cloudy
6:35 PM 64.4 °F 55.4 °F 73% 29.78 in 10.0 mi NE 13.8 mph - N/A   Mostly Cloudy
6:55 PM 64.4 °F 57.2 °F 77% 29.79 in 10.0 mi NE 10.4 mph - N/A   Mostly Cloudy
7:15 PM 64.4 °F 55.4 °F 73% 29.79 in 10.0 mi NE 10.4 mph - N/A   Mostly Cloudy
7:35 PM 62.6 °F 55.4 °F 77% 29.78 in 10.0 mi NE 10.4 mph - N/A   Partly Cloudy
7:55 PM 62.6 °F 55.4 °F 77% 29.79 in 10.0 mi ENE 6.9 mph - N/A   Scattered Clouds
8:15 PM 62.6 °F 55.4 °F 77% 29.78 in 10.0 mi ENE 6.9 mph - N/A   Mostly Cloudy
8:35 PM 62.6 °F 55.4 °F 77% 29.77 in 10.0 mi ENE 10.4 mph - N/A   Clear
8:55 PM 62.6 °F 55.4 °F 77% 29.77 in 10.0 mi ENE 10.4 mph - N/A   Clear
9:15 PM 62.6 °F 55.4 °F 77% 29.78 in 10.0 mi ENE 8.1 mph - N/A   Clear
9:35 PM 64.4 °F 57.2 °F 77% 29.78 in 10.0 mi ENE 9.2 mph - N/A   Mostly Cloudy
9:55 PM 64.4 °F 57.2 °F 77% 29.77 in 10.0 mi ENE 11.5 mph - N/A   Mostly Cloudy
10:15 PM 66.2 °F 57.2 °F 73% 29.75 in 10.0 mi NE 12.7 mph - N/A   Overcast
10:35 PM 66.2 °F 57.2 °F 73% 29.72 in 10.0 mi NE 16.1 mph - N/A   Overcast
11:35 PM 64.4 °F 57.2 °F 77% 29.74 in 10.0 mi ENE 16.1 mph - N/A   Overcast
11:55 PM 62.6 °F 57.2 °F 82% 29.78 in 10.0 mi NW 3.5 mph 21.9 mph N/A Thunderstorm Overcast